sat.trackr.live / text

‹ back to catalog

STARLINK-35332

NORAD 65887 · 2025-224F

PAYLOAD ACTIVE UNKNOWN

§ Identity

Operator
Country
US
Launch date
2025-10-07
Launch site
AFETR
Launch vehicle
Mass (kg)
RCS (m²)

Purposes: comms

External: N2YO · Heavens-Above · Gunter

§ Orbital elements

Epoch: 2026-09-20T06:40:58.924128Z

Period
93.85 min
Inclination
53.1576°
Eccentricity
0.0001325
Mean motion
15.34408371 rev/d
Perigee alt
461.8 km
Apogee alt
463.6 km
Semi-major
6,840.8 km
B*
3.8818e-4
RAAN
182.7603°
Arg perigee
84.6644°
Mean anomaly
275.4510°
Rev number
5,471

§ Raw data

STARLINK-353321 65887U 25224F   26263.27845977  .00012765  00000+0  38818-3 0  99982 65887  53.1576 182.7603 0001325  84.6644 275.4510 15.34408371 54710

JSON: /api/v1/satellites/65887 · /tle

For live sub-satellite position, see the globe view (requires WebGL).

§ Visibility from observer

Set your observer location to see the next 7 days of passes ≥ 10°. The values pass through the URL so the page stays shareable.

No JS? Fill the form by hand. The geolocation button needs JavaScript.